IVARAZ6 Weather Reports


time (UTC)temp
C
wind
direction
speed
KPH
gust
KPH
rain 1hr
cm
rain 24hr
cm
rain mn
cm
humidity
%
barometer
mb
20260507122624 19 78 11.3 16.1 0.00 0.00 0.00 74 1010.9
20260507122127 19 199 3.2 20.9 0.00 0.00 0.00 75 1010.9
20260507121624 19 70 12.9 20.9 0.00 0.00 0.00 74 1010.8
20260507121118 19 227 3.2 17.7 0.00 0.00 0.00 74 1010.9
20260507120618 19 249 4.8 19.3 0.00 0.00 0.00 74 1010.8
20260507120121 19 35 16.1 19.3 0.00 0.00 0.00 74 1010.9
20260507115627 19 28 3.2 14.5 0.00 0.00 0.00 73 1010.9
20260507115118 19 355 6.4 14.5 0.00 0.00 0.00 73 1011.0
20260507114628 19 272 9.7 14.5 0.00 0.00 0.00 73 1010.9
20260507114121 19 321 6.4 14.5 0.00 0.00 0.00 72 1011.1
20260507113624 20 15 4.8 17.7 0.00 0.00 0.00 72 1011.2
20260507113124 20 349 8.0 12.9 0.00 0.00 0.00 70 1011.3
20260507112618 20 219 3.2 9.7 0.00 0.00 0.00 71 1011.2
20260507112118 20 13 3.2 11.3 0.00 0.00 0.00 70 1011.2
20260507111624 20 321 4.8 11.3 0.00 0.00 0.00 70 1011.2
20260507111121 20 309 1.6 14.5 0.00 0.00 0.00 71 1011.2
20260507110618 20 97 3.2 14.5 0.00 0.00 0.00 71 1011.3
20260507110118 20 239 4.8 12.9 0.00 0.00 0.00 72 1011.3
20260507105618 20 134 3.2 14.5 0.00 0.00 0.00 71 1011.3
20260507105118 20 317 3.2 16.1 0.00 0.00 0.00 72 1011.3
20260507104621 20 258 6.4 12.9 0.00 0.00 0.00 72 1011.3
20260507104124 19 255 4.8 9.7 0.00 0.00 0.00 74 1011.3
20260507103621 18 242 4.8 14.5 0.00 0.00 0.00 75 1011.4
20260507103121 18 227 6.4 12.9 0.00 0.00 0.00 75 1011.4
20260507102624 18 315 1.6 12.9 0.00 0.00 0.00 75 1011.4
20260507102121 18 80 4.8 14.5 0.00 0.00 0.00 76 1011.5
20260507101618 18 72 0.0 9.7 0.00 0.00 0.00 77 1011.4
20260507101121 18 136 4.8 14.5 0.00 0.00 0.00 78 1011.3
20260507100621 17 321 6.4 12.9 0.00 0.00 0.00 78 1011.4
20260507100121 17 213 4.8 9.7 0.00 0.00 0.00 82 1011.4
20260507095621 16 76 0.0 6.4 0.00 0.00 0.00 84 1011.4
20260507095118 16 87 3.2 4.8 0.00 0.00 0.00 84 1011.4
20260507094618 16 65 4.8 8.0 0.00 0.00 0.00 84 1011.4
20260507094118 16 38 3.2 6.4 0.00 0.00 0.00 85 1011.5
20260507093618 16 22 4.8 8.0 0.00 0.00 0.00 84 1011.5
20260507093118 16 59 4.8 8.0 0.00 0.00 0.00 83 1011.4
20260507092621 16 67 6.4 8.0 0.00 0.00 0.00 82 1011.4
20260507092118 17 60 3.2 8.0 0.00 0.00 0.00 80 1011.3
20260507091618 17 37 4.8 6.4 0.00 0.00 0.00 78 1011.3
20260507091118 17 32 1.6 12.9 0.00 0.00 0.00 77 1011.2
20260507090618 18 59 6.4 14.5 0.00 0.00 0.00 75 1011.2
20260507090119 18 144 4.8 14.5 0.00 0.00 0.00 75 1011.2
20260507085618 18 206 8.0 14.5 0.00 0.00 0.00 75 1011.1
20260507085118 18 187 1.6 11.3 0.00 0.00 0.00 76 1011.0
20260507084627 18 24 1.6 14.5 0.00 0.00 0.00 77 1011.0
20260507084118 18 40 11.3 14.5 0.00 0.00 0.00 77 1010.9
20260507083621 18 341 8.0 14.5 0.00 0.00 0.00 79 1010.7
20260507083121 18 296 8.0 14.5 0.00 0.00 0.00 79 1010.6
20260507082618 18 311 3.2 14.5 0.00 0.00 0.00 79 1010.7
20260507082118 18 335 9.7 14.5 0.00 0.00 0.00 79 1010.7
20260507081618 18 346 4.8 14.5 0.00 0.00 0.00 79 1010.7
20260507081118 18 294 6.4 11.3 0.00 0.00 0.00 79 1010.6
20260507080621 18 321 4.8 16.1 0.00 0.00 0.00 78 1010.6
20260507080118 18 284 3.2 11.3 0.00 0.00 0.00 78 1010.5
20260507075618 18 256 3.2 9.7 0.00 0.00 0.00 77 1010.5
20260507075118 18 327 3.2 9.7 0.00 0.00 0.00 78 1010.4
20260507074621 18 19 1.6 9.7 0.00 0.00 0.00 78 1010.5
20260507074118 18 62 3.2 9.7 0.00 0.00 0.00 78 1010.4
20260507073618 18 346 6.4 12.9 0.00 0.00 0.00 77 1010.4
20260507073124 18 336 4.8 9.7 0.00 0.00 0.00 77 1010.4
20260507072621 18 286 3.2 9.7 0.00 0.00 0.00 77 1010.5
20260507072121 18 319 8.0 12.9 0.00 0.00 0.00 78 1010.3
20260507071621 18 317 4.8 8.0 0.00 0.00 0.00 77 1010.4
20260507071118 18 317 3.2 12.9 0.00 0.00 0.00 77 1010.3
20260507070618 18 205 6.4 6.4 0.00 0.00 0.00 77 1010.3
20260507070124 18 12 1.6 9.7 0.00 0.00 0.00 78 1010.2
20260507065618 18 355 1.6 11.3 0.00 0.00 0.00 78 1010.1
20260507065121 18 275 6.4 9.7 0.00 0.00 0.00 79 1010.1
20260507064618 17 198 1.6 11.3 0.00 0.00 0.00 79 1010.0
20260507064121 17 0 8.0 9.7 0.00 0.00 0.00 79 1010.0
20260507063621 17 336 8.0 8.0 0.00 0.00 0.00 79 1010.0
20260507063118 17 315 4.8 12.9 0.00 0.00 0.00 80 1009.9
20260507062619 17 343 6.4 9.7 0.00 0.00 0.00 79 1010.0
20260507062124 17 228 3.2 8.0 0.00 0.00 0.00 79 1009.9
20260507061624 17 29 1.6 11.3 0.00 0.00 0.00 79 1009.9
20260507061118 17 0 3.2 8.0 0.00 0.00 0.00 80 1009.8
20260507060618 17 327 4.8 6.4 0.00 0.00 0.00 80 1009.7
20260507060118 17 339 3.2 6.4 0.00 0.00 0.00 80 1009.8
20260507055618 17 340 4.8 9.7 0.00 0.05 0.00 80 1009.7
20260507055127 17 0 1.6 12.9 0.00 0.08 0.00 80 1009.7
20260507054621 17 300 8.0 11.3 0.00 0.10 0.00 80 1009.7
20260507054118 17 301 1.6 9.7 0.00 0.13 0.00 81 1009.7
20260507053618 17 273 3.2 9.7 0.00 0.18 0.00 81 1009.6
20260507053121 16 24 4.8 6.4 0.00 0.28 0.00 82 1009.5
20260507052618 16 74 3.2 11.3 0.00 0.28 0.00 82 1009.4
20260507052118 16 5 1.6 6.4 0.00 0.30 0.00 83 1009.4
20260507051621 16 0 1.6 6.4 0.00 0.36 0.00 83 1009.3
20260507051125 16 5 3.2 8.0 0.00 0.41 0.00 83 1009.2
20260507050621 16 345 3.2 6.4 0.00 0.46 0.00 84 1009.2
20260507050124 16 5 1.6 4.8 0.00 0.46 0.00 85 1009.1
20260507045618 16 338 4.8 4.8 0.00 0.46 0.00 85 1009.0
20260507045121 16 46 1.6 3.2 0.00 0.46 0.00 85 1009.1
20260507044618 16 48 0.0 4.8 0.00 0.46 0.00 85 1009.0
20260507044118 16 37 0.0 4.8 0.00 0.46 0.00 85 1009.0
20260507043618 16 51 0.0 3.2 0.00 0.46 0.00 85 1009.0
20260507043118 16 62 3.2 4.8 0.00 0.46 0.00 85 1009.0
20260507042618 16 25 1.6 3.2 0.00 0.46 0.00 85 1008.9
20260507042118 16 0 1.6 4.8 0.00 0.46 0.00 85 1008.9
20260507041618 16 52 3.2 4.8 0.00 0.46 0.00 86 1008.9
20260507041118 16 51 0.0 3.2 0.00 0.46 0.00 86 1008.9
20260507040618 16 51 0.0 4.8 0.00 0.46 0.00 86 1008.8
20260507040124 16 74 3.2 6.4 0.00 0.46 0.00 86 1008.8
20260507035618 16 48 4.8 4.8 0.00 0.46 0.00 86 1008.9
20260507035118 16 40 3.2 4.8 0.00 0.46 0.00 86 1008.9
20260507034624 16 40 0.0 6.4 0.00 0.46 0.00 86 1008.8
20260507034118 16 23 0.0 4.8 0.00 0.46 0.00 86 1008.8
20260507033618 16 346 1.6 4.8 0.00 0.46 0.00 86 1008.7
20260507033121 16 334 1.6 4.8 0.00 0.46 0.00 86 1008.6
20260507032624 16 29 3.2 4.8 0.00 0.46 0.00 86 1008.6
20260507032118 16 45 3.2 8.0 0.00 0.46 0.00 85 1008.6
20260507031618 16 57 6.4 6.4 0.00 0.46 0.00 85 1008.6
20260507031121 16 67 1.6 4.8 0.00 0.46 0.00 86 1008.7
20260507030618 16 66 3.2 6.4 0.00 0.46 0.00 86 1008.8
20260507030118 16 26 1.6 6.4 0.00 0.46 0.00 86 1008.8
20260507025621 16 38 6.4 6.4 0.00 0.46 0.00 86 1008.8
20260507025121 16 38 1.6 4.8 0.00 0.46 0.00 87 1008.7
20260507024619 16 61 0.0 4.8 0.00 0.46 0.00 87 1008.7
20260507024118 16 28 1.6 1.6 0.00 0.46 0.00 87 1008.7
20260507023618 16 28 1.6 4.8 0.00 0.46 0.00 87 1008.7
20260507023124 16 54 3.2 4.8 0.00 0.46 0.00 87 1008.7
20260507022621 16 74 3.2 9.7 0.00 0.46 0.00 86 1008.7
20260507022121 16 24 8.0 8.0 0.00 0.46 0.00 88 1008.7
20260507021618 16 50 1.6 3.2 0.00 0.46 0.00 88 1008.6
20260507021118 16 50 3.2 6.4 0.00 0.48 0.00 87 1008.6
20260507020618 16 42 3.2 6.4 0.00 0.48 0.00 87 1008.7
20260507020118 16 62 1.6 4.8 0.00 0.48 0.00 87 1008.6
20260507015618 16 27 0.0 4.8 0.00 0.51 0.00 87 1008.6
20260507015121 16 21 1.6 3.2 0.00 0.51 0.00 88 1008.5
20260507014618 16 21 1.6 3.2 0.00 0.53 0.00 88 1008.4
20260507014121 16 21 3.2 4.8 0.00 0.53 0.00 88 1008.4
20260507013618 16 61 3.2 8.0 0.00 0.56 0.00 88 1008.4
20260507013121 16 73 1.6 3.2 0.00 0.61 0.00 88 1008.4
20260507012624 16 27 1.6 4.8 0.00 0.69 0.00 87 1008.4
20260507012118 16 34 3.2 3.2 0.00 0.71 0.00 87 1008.5
20260507011621 16 21 1.6 3.2 0.00 0.74 0.00 87 1008.5
20260507011118 16 21 1.6 3.2 0.00 0.76 0.00 87 1008.5
20260507010618 16 32 0.0 3.2 0.00 0.76 0.00 87 1008.6
20260507010127 16 33 3.2 3.2 0.00 0.76 0.00 87 1008.6
20260507005618 16 33 0.0 3.2 0.00 0.79 0.00 87 1008.7
20260507005121 16 25 1.6 1.6 0.00 0.84 0.00 87 1008.7
20260507004621 16 25 1.6 4.8 0.00 0.86 0.00 86 1008.7
20260507004124 16 74 1.6 3.2 0.00 0.91 0.00 86 1008.7
20260507003624 16 5 0.0 3.2 0.00 0.91 0.00 86 1008.7
20260507003118 16 5 3.2 4.8 0.00 0.94 0.00 86 1008.6
20260507002624 16 12 1.6 3.2 0.00 0.94 0.00 86 1008.6
20260507002121 17 23 1.6 4.8 0.00 0.97 0.00 86 1008.6
20260507001618 17 347 3.2 3.2 0.00 0.97 0.00 86 1008.6
20260507001118 17 44 0.0 4.8 0.00 0.99 0.00 86 1008.6
20260507000621 17 305 3.2 4.8 0.00 0.99 0.00 86 1008.6
20260507000124 17 266 1.6 6.4 0.00 0.99 0.00 86 1008.5
20260506235621 17 287 3.2 4.8 0.00 0.99 0.00 85 1008.6
20260506235121 16 311 3.2 4.8 0.00 0.99 0.00 85 1008.6
20260506234621 16 345 3.2 4.8 0.00 0.99 0.00 85 1008.6
20260506234121 17 252 3.2 4.8 0.00 0.99 0.00 85 1008.6
20260506233621 17 295 4.8 4.8 0.00 0.99 0.00 85 1008.7
20260506233121 17 321 0.0 4.8 0.00 0.99 0.00 85 1008.7
20260506232621 17 272 0.0 6.4 0.00 0.99 0.00 85 1008.7
20260506232118 17 238 6.4 11.3 0.00 0.99 0.00 85 1008.7
20260506231627 17 235 3.2 9.7 0.00 0.99 0.00 85 1008.8
20260506231121 17 219 3.2 6.4 0.00 0.99 0.00 85 1008.7
20260506230618 17 252 3.2 6.4 0.00 0.99 0.00 85 1008.8
20260506230121 17 120 3.2 11.3 0.00 0.99 0.00 85 1008.6
20260506225618 17 221 3.2 8.0 0.00 0.99 0.00 85 1008.6
20260506225121 17 231 4.8 8.0 0.00 0.99 0.00 85 1008.6
20260506224624 17 259 1.6 4.8 0.00 0.99 0.00 85 1008.6
20260506224118 17 312 1.6 4.8 0.00 0.99 0.00 84 1008.6
20260506223618 17 238 3.2 11.3 0.00 0.99 0.00 84 1008.5
20260506223118 17 202 11.3 12.9 0.00 0.99 0.00 85 1008.5
20260506222618 17 222 3.2 8.0 0.00 0.99 0.00 84 1008.5
20260506222118 17 213 8.0 11.3 0.00 0.99 0.00 84 1008.6
20260506221618 17 243 4.8 12.9 0.00 0.99 0.00 84 1008.7
20260506221121 17 191 4.8 14.5 0.00 0.99 0.00 84 1008.8
20260506220621 17 172 3.2 11.3 0.00 0.99 0.00 84 1008.6
20260506220121 17 184 6.4 16.1 0.00 0.99 0.00 84 1008.7
20260506215618 17 239 8.0 12.9 0.00 0.99 0.00 84 1008.6
20260506215121 17 167 9.7 14.5 0.00 0.99 0.00 84 1008.7
20260506214618 17 188 11.3 12.9 0.00 0.99 0.00 84 1008.7
20260506214119 17 209 4.8 16.1 0.00 0.99 0.00 83 1008.8
20260506213621 17 219 8.0 17.7 0.00 0.99 0.00 83 1008.7
20260506213121 17 173 14.5 17.7 0.00 0.99 0.00 83 1008.7
20260506212621 17 223 8.0 16.1 0.00 0.99 0.00 83 1008.7
20260506212124 17 167 17.7 17.7 0.00 0.99 0.00 83 1008.8
20260506211621 17 219 4.8 14.5 0.00 0.99 0.00 83 1008.8
20260506211121 17 189 11.3 16.1 0.00 0.99 0.00 83 1008.8
20260506210624 17 214 6.4 16.1 0.00 0.99 0.00 82 1008.7
20260506210121 17 202 8.0 14.5 0.00 0.99 0.00 82 1008.7
20260506205621 17 180 4.8 14.5 0.00 0.99 0.00 82 1008.7
20260506205124 17 170 9.7 14.5 0.00 0.99 0.00 81 1008.7
20260506204618 17 242 8.0 12.9 0.00 0.99 0.00 82 1008.6
20260506204121 17 212 3.2 12.9 0.00 0.99 0.00 81 1008.6
20260506203625 17 260 3.2 11.3 0.00 0.99 0.00 81 1008.6
20260506203121 17 235 4.8 11.3 0.00 0.99 0.00 81 1008.5
20260506202618 17 187 4.8 19.3 0.00 0.99 0.00 81 1008.4
20260506202118 17 205 8.0 12.9 0.00 0.99 0.00 81 1008.4
20260506201621 17 231 3.2 9.7 0.00 0.99 0.00 82 1008.4
20260506201121 17 216 4.8 14.5 0.00 0.99 0.00 81 1008.3
20260506200621 17 218 4.8 9.7 0.00 0.99 0.00 81 1008.3
20260506200121 17 188 3.2 12.9 0.00 0.99 0.00 81 1008.3
20260506195621 17 184 4.8 14.5 0.00 0.99 0.00 81 1008.2
20260506195121 17 199 3.2 16.1 0.00 0.99 0.00 81 1008.1
20260506194624 17 188 6.4 14.5 0.00 0.99 0.00 81 1008.0
20260506194121 17 227 8.0 16.1 0.00 0.99 0.00 81 1008.0
20260506193618 17 186 3.2 14.5 0.00 0.99 0.00 81 1007.9
20260506193121 17 234 4.8 16.1 0.00 0.99 0.00 81 1007.7
20260506192621 17 179 9.7 16.1 0.00 0.99 0.00 81 1007.6
20260506192121 17 254 4.8 11.3 0.00 0.99 0.00 81 1007.5
20260506191624 17 259 1.6 8.0 0.00 0.99 0.00 81 1007.5
20260506191118 17 313 3.2 4.8 0.00 0.99 0.00 81 1007.5
20260506190621 17 312 1.6 6.4 0.00 0.99 0.00 81 1007.4
20260506190121 17 155 1.6 8.0 0.00 0.99 0.00 81 1007.3
20260506185618 17 355 3.2 8.0 0.00 0.99 0.00 81 1007.4
20260506185124 17 248 1.6 9.7 0.00 0.99 0.00 81 1007.3
20260506184621 17 204 8.0 6.4 0.00 0.99 0.00 81 1007.2
20260506184121 17 316 3.2 6.4 0.00 0.99 0.00 82 1007.2
20260506183618 17 236 3.2 9.7 0.00 0.99 0.00 81 1007.1
20260506183127 17 88 1.6 12.9 0.00 0.99 0.00 82 1007.0
20260506182618 17 211 11.3 16.1 0.00 0.99 0.00 81 1007.1
20260506182118 17 181 9.7 17.7 0.00 0.99 0.00 82 1007.1
20260506181621 17 206 4.8 17.7 0.00 0.99 0.00 82 1006.9
20260506181118 17 204 12.9 19.3 0.00 0.99 0.00 82 1006.9
20260506180618 17 213 9.7 16.1 0.00 0.99 0.00 82 1006.9
20260506180121 17 196 6.4 17.7 0.00 0.99 0.00 81 1006.8
20260506175621 17 161 14.5 17.7 0.00 0.99 0.00 82 1006.6
20260506175124 17 206 16.1 16.1 0.00 0.99 0.00 82 1006.5
20260506174627 17 302 3.2 14.5 0.00 0.99 0.00 82 1006.5
20260506174124 17 264 4.8 19.3 0.00 0.99 0.00 81 1006.5
20260506173624 17 219 8.0 9.7 0.00 0.99 0.00 81 1006.6
20260506173121 17 260 4.8 12.9 0.00 0.99 0.00 81 1006.6
20260506172618 17 258 6.4 12.9 0.00 0.99 0.00 80 1006.6
20260506172118 17 230 12.9 12.9 0.00 0.99 0.00 80 1006.6
20260506171618 17 295 4.8 14.5 0.00 0.99 0.00 81 1006.6
20260506171121 17 290 8.0 11.3 0.00 0.99 0.00 81 1006.5
20260506170618 17 250 11.3 12.9 0.00 0.99 0.00 81 1006.5
20260506170127 17 304 6.4 14.5 0.00 0.99 0.00 82 1006.4
20260506165624 17 317 6.4 9.7 0.00 0.99 0.00 83 1006.4
20260506165124 17 313 4.8 6.4 0.00 0.99 0.00 83 1006.4
20260506164618 17 0 1.6 11.3 0.00 0.99 0.00 83 1006.5
20260506164124 17 263 9.7 12.9 0.00 0.99 0.00 83 1006.4
20260506163618 17 257 4.8 9.7 0.00 0.99 0.00 84 1006.4
20260506163118 17 330 1.6 8.0 0.00 0.99 0.00 84 1006.4
20260506162621 17 314 4.8 11.3 0.00 0.99 0.00 84 1006.4
20260506162124 17 22 6.4 12.9 0.00 0.99 0.00 84 1006.3
20260506161618 17 279 4.8 11.3 0.00 0.99 0.00 84 1006.3
20260506161121 17 304 11.3 11.3 0.00 0.99 0.00 83 1006.4
20260506160621 17 243 6.4 12.9 0.00 0.99 0.00 82 1006.4
20260506160118 17 326 6.4 14.5 0.00 0.99 0.00 81 1006.5
20260506155618 17 262 3.2 12.9 0.00 0.99 0.00 81 1006.5
20260506155118 17 282 6.4 12.9 0.00 0.99 0.00 80 1006.4
20260506154624 17 241 6.4 12.9 0.00 0.99 0.00 80 1006.3
20260506154118 17 252 8.0 17.7 0.00 0.99 0.00 80 1006.3
20260506153618 18 193 16.1 17.7 0.00 0.99 0.00 79 1006.3
20260506153121 18 213 14.5 17.7 0.00 0.99 0.00 79 1006.3
20260506152624 18 238 3.2 11.3 0.00 0.99 0.00 79 1006.4
20260506152119 18 220 8.0 20.9 0.00 0.99 0.00 79 1006.4
20260506151621 18 227 8.0 19.3 0.00 0.99 0.00 79 1006.4
20260506151121 18 198 14.5 19.3 0.00 0.99 0.00 78 1006.4
20260506150618 18 174 12.9 22.5 0.00 0.99 0.00 79 1006.4
20260506150118 18 207 14.5 24.1 0.00 0.99 0.00 79 1006.4
20260506145618 18 187 16.1 19.3 0.00 0.99 0.00 79 1006.4
20260506145121 18 212 8.0 20.9 0.00 0.99 0.00 77 1006.4
20260506144618 18 205 6.4 19.3 0.00 0.99 0.00 78 1006.4
20260506144118 18 196 9.7 17.7 0.00 0.99 0.00 77 1006.5
20260506143618 18 202 11.3 17.7 0.00 0.99 0.00 77 1006.4
20260506143118 18 238 9.7 17.7 0.00 0.99 0.00 78 1006.5
20260506142618 18 218 12.9 20.9 0.00 0.99 0.00 77 1006.4
20260506142118 18 175 16.1 22.5 0.00 0.99 0.00 78 1006.4
20260506141618 18 227 11.3 17.7 0.00 0.99 0.00 78 1006.4
20260506141121 18 216 11.3 20.9 0.00 0.99 0.00 80 1006.5
20260506140624 18 185 11.3 20.9 0.00 0.99 0.00 80 1006.5
20260506140118 18 228 6.4 19.3 0.00 0.99 0.00 81 1006.5
20260506135621 18 197 9.7 17.7 0.00 0.99 0.00 82 1006.5
20260506135118 18 207 11.3 20.9 0.00 0.99 0.00 80 1006.5
20260506134618 18 200 11.3 17.7 0.00 0.99 0.00 80 1006.5
20260506134124 18 198 11.3 22.5 0.00 0.99 0.00 79 1006.6
20260506133621 18 178 9.7 20.9 0.00 0.99 0.00 81 1006.6
20260506133118 18 173 3.2 17.7 0.00 0.99 0.00 79 1006.7
20260506132618 18 202 6.4 19.3 0.00 0.99 0.00 80 1006.7
20260506132121 18 211 16.1 22.5 0.00 0.99 0.00 80 1006.6
20260506131621 18 192 17.7 17.7 0.00 0.99 0.00 81 1006.7
20260506131121 18 178 8.0 19.3 0.00 0.99 0.00 81 1006.8
20260506130618 18 232 12.9 27.4 0.00 0.99 0.00 82 1006.8
20260506130121 18 229 17.7 20.9 0.00 0.99 0.00 81 1006.8
20260506125621 18 217 20.9 20.9 0.00 0.99 0.00 80 1006.8
20260506125121 18 248 6.4 19.3 0.00 0.99 0.00 79 1006.9
20260506124621 18 217 4.8 22.5 0.00 0.99 0.00 79 1006.7
20260506124118 18 208 12.9 16.1 0.00 0.99 0.00 80 1006.6
20260506123618 18 146 4.8 17.7 0.00 0.99 0.00 78 1006.5
20260506123121 18 205 1.6 16.1 0.00 0.99 0.00 78 1006.5